Вани

Грузия     42°05′03″N   42°31′01″E
темп.,
°C
ветер,
м/с
пор.,
м/с
влажн.,
%
обл.,
%
осадки,
мм/ч
давл.,
гПа
погр.,
м
17 мая, пн
пн1701:00+16ююв11580 0.0 100820
04:00+15юв11610 0.0 100816
07:00+15вюв22654 0.0 100736
10:00+19сз2260100 0.0 1008217
13:00+17зсз337895 0.8 1009361
16:00+12ююз1297100 4.7 1012178
19:00+13зсз2398100 4.4 1012294
22:00+12ссз22100100 10.3 1013147
18 мая, вт
вт1801:00+12ссз1110099 1.6 101489
04:00+11в119997 2.1 101353
07:00+12юв22923 0.1 101343
10:00+17ссв21775 0.4 1013396
13:00+21ссз34527 0.4 10131459
16:00+22ссз34496 0.9 10121593
19:00+20ссв11653 0.1 101275
22:00+16ююв44561 0.1 101345
19 мая, ср
ср1901:00+16ююв44473 0.0 101154
04:00+17ююв564423 0.0 100890
07:00+15зсз366277 0.0 1013410
10:00+13с129285 0.3 1017323
13:00+12зсз2399100 0.9 1020215
16:00+12зюз129485 1.3 1021173
19:00+13ссз11929 0.0 1020108
22:00+10ююв22921 0.0 102121
20 мая, чт
чт2001:00+10ююв328390 0.0 101930
04:00+10ююв43510 0.0 101839
07:00+13ююв43430 0.0 101643
10:00+21ссв22380 0.0 1015473
13:00+25ссв33370 0.0 1014854
16:00+27св33320 0.0 10121020
19:00+23вюв33550 0.0 101253
22:00+20ююв45460 0.0 101262
21 мая, пт
пт2101:00+19юв56430 0.0 101290
04:00+19юв56470 0.0 101184
07:00+20ююв45520 0.0 101178
10:00+30всв24320 0.0 1009499
13:00+32ссв33274 0.0 10091685
16:00+29ссз21441 0.0 1010602
19:00+25всв12690 0.0 101068
22:00+22ююв33480 0.0 101045